Location: Sibbertoft
(52.4361°N, 1.0300°W)
Time: 10:33:01
(UTC+01:00)

Envisat - Visible Passes

Search period start: 20 October 2018 00:00
Search period end: 29 October 2018 23:00
Orbit: 764 x 766 km, 98.2° (Epoch: 19 October)

Date Brightness Start Highest point End Pass type
(mag) Time Alt. Az. Time Alt. Az. Time Alt. Az.
20 Oct 3.1 19:18:43 10° SE 19:23:40 56° ENE 19:28:38 10° N visible
20 Oct 5.0 20:58:48 10° SSW 21:03:01 26° W 21:07:16 10° NW visible
21 Oct 3.8 18:42:44 10° ESE 18:47:09 31° ENE 18:51:34 10° N visible
21 Oct 3.9 20:21:05 10° S 20:26:00 49° W 20:30:57 10° NNW visible
22 Oct 2.9 19:44:05 10° SSE 19:49:10 87° ENE 19:54:18 10° NNW visible
22 Oct 5.6 21:25:44 10° SW 21:28:53 16° W 21:32:05 10° NW visible
23 Oct 3.3 19:07:41 10° SE 19:12:31 46° ENE 19:17:23 10° N visible
23 Oct 4.7 20:47:14 10° SSW 20:51:44 31° W 20:56:15 10° NNW visible
24 Oct 4.0 18:31:55 10° ESE 18:36:04 26° ENE 18:40:14 10° N visible
24 Oct 3.5 20:09:45 10° S 20:14:46 60° W 20:19:49 10° NNW visible
25 Oct 2.9 19:32:56 10° SSE 19:37:59 72° ENE 19:43:05 10° NNW visible
25 Oct 5.4 21:13:53 10° SW 21:17:34 20° W 21:21:16 10° NW visible
26 Oct 3.5 18:56:43 10° SE 19:01:24 39° ENE 19:06:06 10° N visible
26 Oct 4.3 20:35:45 10° SSW 20:40:27 38° W 20:45:12 10° NNW visible
27 Oct 4.2 18:21:09 10° ESE 18:24:59 22° ENE 18:28:51 10° N visible
27 Oct 3.2 19:58:29 10° S 20:03:33 73° WSW 20:08:39 10° NNW visible
27 Oct 5.9 21:41:27 10° WSW 21:43:30 12° W 21:45:35 10° WNW visible
28 Oct 3.0 18:21:50 10° SSE 18:26:50 60° ENE 18:31:51 10° N visible
28 Oct 5.1 20:02:10 10° SW 20:06:15 24° W 20:10:22 10° NW visible
29 Oct 3.7 17:45:49 10° SE 17:50:18 33° ENE 17:54:48 10° N visible
29 Oct 4.0 19:24:20 10° S 19:29:12 46° W 19:34:07 10° NNW visible
